Volver al catálogo

STARLINK-4389

ActivoComunicacionesSSO
NORAD 53475·PAYLOAD·🇺🇸 United States

Lanzado Aug 12, 2022 desde Vandenberg Space Force Base

Loading…

Próximos Pases (próximas 24 horas)

TLE

ActualizadoSource: CelesTrak SupGP

Época: Sep 14, 2026, 22:01 UTC

1 53475C 22099L   26257.91784722  .00614640  00000+0  15354-1 0  2574
2 53475  97.4967  25.0262 0001574  92.7017 286.3583 15.39890008    17

Sigue STARLINK-4389 en tiempo real con AllMySat

Download on the App Store